Location: Unspecified
(0.0000°N, 0.0000°E)
Time: 05:54:30
(UTC+00:00)

XW-2F - Pass Details

Date: 20 July 2020
Orbit: 501 x 522 km, 97.5° (Epoch: 13 August)

Event Time Altitude Azimuth Distance (km) Brightness Sun altitude
Rises 04:54:11 0° 43° (NE) 2,602 ? -16.9°
Reaches altitude 10° 04:57:07 10° 70° (ENE) 1,716 ? -16.2°
Maximum altitude 04:59:04 14° 101° (ESE) 1,490 ? -15.7°
Drops below altitude 10° 05:01:00 10° 133° (SE) 1,715 ? -15.3°
Sets 05:03:56 0° 159° (SSE) 2,599 ? -14.6°
